Starlink 31647

operational
NORAD ID: 59389 Int'l Des: 2024-062 Owner: SPXS Country: US Constellation: starlink
LEOCIRCULAR

About Starlink 31647

Description loading...

Live Position

Loading 3D Globe...

Upcoming Passes

Altitude History

Altitude vs Time

uPlot chart will show altitude changes over time

Two-Line Element Set

1 59389U 24062R 25304.79890469 -.00007506 00000-0 -24144-3 0 9992
2 59389 53.1601 134.6631 0001296 94.0542 266.0607 15.30212460 89938
Epoch: Oct 31, 2025 • Age: 23 hours

Current Status

Altitude 488.5 km
Velocity 7.62 km/s
Sub-Earth Point -38.74°S, 33.78°E
Launch Date Apr 2, 2024
Age 1.5 years
Type internet

Technical Details

Classification Payload
Mass 730.00 kg
Dry Mass 700.00 kg
Total Mass 730.00 kg
Length 0.30 m
Diameter 4.10 m
Span 29.00 m
Shape Box + pan
Manufacturer SPXS
Bus Type Starlink V2M
Phase Status In Orbit
Owner/State SPXS/US

Large Constellations

Loading constellations...